Regional Weather Roundup
Issued by NWS

Home | Current Version | Previous Version | Text Only | Print | Product List | Glossary On
Versions: 1 2 3 4 5 6 7 8 9 10 11 12 13 14 15 16 17 18 19 20 21 22 23 24 25 26 27 28 29 30 31 32 33 34 35 36 37 38 39 40 41 42 43 44 45 46 47 48 49 50
000
ASUS45 KREV 192310
RWRNV
NEVADA REGIONAL WEATHER ROUNDUP
NATIONAL WEATHER SERVICE RENO NV
300 PM PST THU JAN 19 2017

NOTE: "FAIR" INDICATES FEW OR NO CLOUDS BELOW 12,000 FEET WITH NO
SIGNIFICANT WEATHER AND/OR OBSTRUCTIONS TO VISIBILITY.

NVZ001-003-004-200000-
WESTERN NEVADA

CITY           SKY/WX    TMP DP  RH WIND       PRES   REMARKS
RENO           PTSUNNY   43  26  51 SW9       29.70S
CARSON CITY    MIX PCPN  36  32  87 SW7       29.74S
MINDEN         FAIR      36  30  80 S7        29.74F
PYRAMID LAKE     N/A     48 N/A N/A W3          N/A
FALLON         PTSUNNY   43  33  68 SE10      29.71F
LOVELOCK       CLOUDY    44  31  60 S8        29.71S
HAWTHORNE        N/A     46  28  49 NW15      29.71S
$$

NVZ002-CAZ072-073-200000-
NORTHERN AND CENTRAL SIERRA

CITY           SKY/WX    TMP DP  RH WIND       PRES   REMARKS
S. LAKE TAHOE  CLOUDY    30  23  75 S14G20    29.71S HAZE
TRUCKEE        LGT SNOW  30  27  86 SW8       29.72S
SQUAW VLY 8000   N/A     23  23 100 SW9         N/A
MAMMOTH LAKES  CLOUDY    29  20  70 NW13      29.73F
BRIDGEPORT     LGT SNOW  28  23  81 E6        29.67F
$$

NVZ030-031-036-200000-
NORTHERN NEVADA

CITY           SKY/WX    TMP DP  RH WIND       PRES   REMARKS
ELKO           LGT SNOW  36  28  73 SW14G23   29.69R
WINNEMUCCA     CLOUDY    38  33  82 E5        29.70F
WENDOVER       CLOUDY    27  21  80 CALM      29.75S VSB 3/4
$$

NVZ035-037-200000-
CENTRAL NEVADA

CITY           SKY/WX    TMP DP  RH WIND       PRES   REMARKS
ELY            CLOUDY    30  28  92 E8        29.70F
EUREKA           N/A     36  23  59 W8        29.69
$$

NVZ013-014-200000-
SOUTH CENTRAL NEVADA

CITY           SKY/WX    TMP DP  RH WIND       PRES   REMARKS
TONOPAH        PTSUNNY   41  30  65 SE6       29.71F
$$

NVZ017-020-022-200000-
SOUTHERN NEVADA

CITY           SKY/WX    TMP DP  RH WIND       PRES   REMARKS
LAS VEGAS      PTSUNNY   56  33  42 SW15G23   29.73S
N. LAS VEGAS   PTSUNNY   54  34  46 SW16G23   29.72F
NELLIS AFB     PTSUNNY   57  37  48 S17       29.73S
HENDERSON      MOSUNNY   54  35  48 SW21      29.75F
MERCURY        CLOUDY    48  37  65 SW14G22   29.74F
$$



USA.gov is the U.S. government's official web portal to all federal, state and local government web resources and services.